Regional Weather Roundup
Issued by NWS

Home | Current Version | Previous Version | Graphics & Text | Print | Product List | Glossary On
Versions: 1 2 3 4 5 6 7 8 9 10 11 12 13 14 15 16 17 18 19 20 21 22 23 24 25 26 27 28 29 30 31 32 33 34 35 36 37 38 39 40 41 42 43 44 45 46 47 48 49 50
000
ASUS43 KOAX 220802
RWRNE

WEATHER ROUNDUP FOR NEBRASKA
NATIONAL WEATHER SERVICE OMAHA NE
300 AM CDT TUE JUL 22 2014

NOTES: SATELLITE DATA IS BEING USED TO AUGMENT CLOUD COVER ABOVE
       12000 FEET.
       "FAIR" INDICATES FEW OR NO CLOUDS BELOW 12,000 FEET WITH NO
       SIGNIFICANT WEATHER AND/OR OBSTRUCTIONS TO VISIBILITY.

  * THESE STATIONS DO NOT REPORT WEATHER SUCH AS RAIN...SNOW OR FOG.

NEZ001>004-019>022-054>056-220900-
NEBRASKA PANHANDLE

CITY           SKY/WX    TMP DP  RH WIND       PRES   REMARKS
SCOTTSBLUFF    CLEAR     67  55  65 NE15      30.10R
ALLIANCE       PTCLDY    72  51  47 N3        30.10R
CHADRON        PTCLDY    72  61  68 NE9       30.12R
KIMBALL        PTCLDY    66  50  56 SW8       30.13S
SIDNEY         PTCLDY    73  51  46 S8        30.10F
$$

NEZ057>060-069>072-079>082-220900-
SOUTHWEST NEBRASKA

CITY           SKY/WX    TMP DP  RH WIND       PRES   REMARKS
NORTH PLATTE   MOCLDY    80  59  48 N5        30.00R
IMPERIAL       CLEAR     66  59  78 CALM      30.06S
LEXINGTON      CLEAR     72  64  76 W5        29.99S
MCCOOK         CLEAR     75  64  68 W9        30.01F
OGALLALA       PTCLDY    72  60  67 SW8       30.03F
$$

NEZ005>010-023>029-035>040-094-220900-
NORTH CENTRAL NEBRASKA

CITY           SKY/WX    TMP DP  RH WIND       PRES   REMARKS
VALENTINE      PTCLDY    76  64  66 N15G21    30.06R
AINSWORTH      PTCLDY    74  62  64 N10       30.01R
BROKEN BOW     PTCLDY    77  60  55 W7        29.97S
O`NEILL        MOCLDY    78  63  58 NW28G38   29.97R
THEDFORD       MOCLDY    73  54  50 W8        30.05R
$$

NEZ041-046>049-061>064-073>077-083>087-220900-
SOUTH CENTRAL NEBRASKA

CITY           SKY/WX    TMP DP  RH WIND       PRES   REMARKS
GRAND ISLAND   MOCLDY    83  70  64 SW15      29.96R
AURORA         MOCLDY    81  72  76 SW7       29.96R
HASTINGS       MOCLDY    80  67  64 SW7       29.97R
HEBRON         CLEAR     80  68  66 S8        29.95F
HOLDREGE       PTCLDY    72  63  72 SW6       30.00S
KEARNEY *      MOCLDY    81  64  57 SW10      29.98F
YORK           MOCLDY    81  73  78 SW12      29.94R
$$

NEZ011>018-030>034-042>045-220900-
NORTHEAST NEBRASKA

CITY           SKY/WX    TMP DP  RH WIND       PRES   REMARKS
NORFOLK        PTCLDY    78  72  81 W5        29.90S
ALBION         PTCLDY    78  69  74 CALM      29.92F
BLAIR          CLOUDY    85  70  60 SW8       29.89R
COLUMBUS *     CLOUDY    86  70  58 W10       29.91R HX  90
FREMONT        CLOUDY    89  70  53 W12       29.89R HX  94
TEKAMAH        MOCLDY    84  72  67 SE7       29.85F
WAYNE          PTCLDY    82  75  79 SW12      29.87S
$$

NEZ050>053-065>068-078-088>093-220900-
SOUTHEAST NEBRASKA

CITY           SKY/WX    TMP DP  RH WIND       PRES   REMARKS
LINCOLN        MOCLDY    85  70  60 S14       29.91F
OMAHA EPPLEY   CLOUDY    87  71  58 S5        29.88S HX  93
BEATRICE       PTCLDY    75  69  80 CALM      29.95S
FALLS CITY     PTCLDY    79  73  82 SW9       29.93R
NEBRASKA CITY  CLOUDY    81  72  73 W10       29.93R
PLATTSMOUTH    CLOUDY    83  68  60 CALM      29.91R
$$

NEZ044-045-051>053-067-220900-
OMAHA AREA

CITY           SKY/WX    TMP DP  RH WIND       PRES   REMARKS
OMAHA EPPLEY   CLOUDY    87  71  58 S5        29.88S HX  93
BLAIR          CLOUDY    85  70  60 SW8       29.89R
FREMONT        CLOUDY    89  70  53 W12       29.89R HX  94
MILLARD        CLOUDY    88  72  58 SW7       29.88F HX  94
OFFUTT AFB     CLOUDY    82  76  83 S1        29.88F
PLATTSMOUTH    CLOUDY    83  68  60 CALM      29.91R
WAHOO          FAIR      87  69  54 SW13G20   29.88F HX  91
$$



USA.gov is the U.S. government's official web portal to all federal, state and local government web resources and services.